CAPE
475 578 615 860 876 874 900 994 1043 842 684 1020 1287 1022 909 892 977 1096 1192 1029 969 948 967 986 1063 1061 1098 1131 1215 1116 1100 1042 991 953 1038 960 924 924 873 982 1123 1160 918 998 924 1102 1079 931 1107 1125 1221 1193 1026 931 699 744 952 925 801 620 581 549 399 398 280 292 276 335 326 512 364 422 305 91 18 11 84 45 11 8 96 31 116 5 0
280 622 654 863 1002 893 844 916 864 821 869 801 974 1098 1168 1004 1081 1196 1208 1052 983 1096 1088 1045 1016 1011 1015 1141 1221 1157 1333 1190 1089 1066 1053 1040 968 890 907 1058 1134 1132 821 834 1054 1022 1020 936 1132 1252 1064 1169 1056 781 778 826 757 791 713 704 667 653 594 468 446 485 461 378 412 392 362 368 221 59 43 91 162 156 132 153 164 288 0 0 7
689 696 734 893 938 884 850 863 766 922 998 829 915 1119 1236 1091 1133 1067 1111 1182 1008 1004 982 1014 1040 1032 1012 921 1148 1299 1328 1182 1155 1119 1168 1174 1017 988 996 860 1021 1019 1040 834 901 904 889 1140 1163 1064 1103 1008 917 702 577 1000 720 720 572 757 797 748 567 532 440 516 455 434 601 643 448 504 402 346 115 152 285 243 231 274 174 113 0 0 4
715 739 802 848 1167 960 870 916 1031 1068 1081 926 880 1118 1170 1128 1027 1029 918 865 1069 1069 996 1032 1039 988 900 897 1122 1160 1266 1075 1027 1059 1054 1022 1035 1113 1057 943 1108 1134 1180 1155 832 816 986 1013 1059 1074 1005 1122 921 800 714 820 773 729 774 794 689 678 498 637 570 484 506 490 462 469 901 727 682 585 330 187 301 287 189 238 285 182 10 10 6
736 714 788 794 785 1049 917 896 965 869 898 988 1082 1070 1109 964 948 814 809 958 1158 1164 1175 1074 990 1005 953 919 928 1109 1190 1094 964 964 917 937 950 975 1022 1044 1082 1064 1151 1162 1219 1110 971 774 945 932 1056 934 1071 1055 858 892 820 848 881 830 872 836 807 806 819 827 758 648 609 1009 728 843 462 688 486 436 317 317 223 156 163 68 36 35 8
726 800 850 785 775 922 930 802 981 941 913 910 1073 1059 1014 953 952 1016 1192 1172 1236 1120 1189 1079 1060 917 1014 1044 988 866 961 969 827 999 998 884 896 829 991 1052 993 1059 1153 1145 1058 851 942 720 1023 1040 1086 1176 1099 1034 968 805 759 838 829 834 814 727 719 820 876 987 989 834 842 1171 678 684 718 632 726 755 517 394 258 129 102 120 36 24 5
816 906 936 859 834 923 1009 771 1064 1040 1239 1260 1024 1044 1290 1347 1263 1172 1148 1162 1188 1138 1078 1066 1016 1042 1038 1128 1093 967 861 926 949 958 1054 924 971 1035 1022 756 905 1029 1161 1201 1340 1073 1009 847 994 824 776 781 982 1024 1010 986 967 880 798 793 830 844 857 851 937 1084 1147 982 852 876 904 860 754 625 764 925 734 494 397 303 149 120 86 29 7
802 864 972 960 805 1006 874 901 1012 1019 1196 1039 965 1234 1147 1126 1089 1184 1176 1216 1240 1177 1121 1073 1084 1153 1131 1138 1176 1126 958 870 804 819 963 989 1023 1018 1128 954 1116 1138 982 990 1106 1057 1010 998 953 772 684 861 967 1061 1008 1010 1054 1065 959 862 907 876 916 1008 1133 1159 895 1029 955 986 941 865 804 676 736 1057 874 702 595 428 307 162 77 40 26
720 759 896 972 973 1156 1228 1241 1300 1295 1236 1183 1085 1136 1109 1126 1133 1214 1233 1264 1226 1271 1250 1149 1224 1266 1239 1337 1157 1168 1052 936 984 927 985 1000 876 1049 1184 1152 1041 1102 956 1041 1150 941 880 893 852 1013 939 979 1135 1169 1122 1047 1099 1078 1084 1052 983 951 1011 1106 1117 1009 1146 1163 1029 903 840 926 932 764 656 997 980 794 730 616 421 193 75 70 43
755 660 734 968 1083 1236 1255 1247 1240 1232 1243 1282 1260 1225 1182 1169 1209 1275 1296 1288 1223 1299 1267 1294 1299 1322 1330 1376 1316 1256 1208 1224 1124 1094 1161 1104 1116 1215 1239 1256 1173 1183 1245 1218 1032 1243 1248 1002 973 1012 1004 1014 1168 1163 1146 1178 1170 1310 1150 1173 1088 1038 1064 1068 1100 1027 1369 976 841 830 838 1387 1365 1243 1123 1379 1540 861 960 764 565 413 104 111 69
766 619 424 672 1047 1359 1298 1310 1372 1357 1386 1349 1366 1434 1508 1512 1502 1413 1444 1451 1490 1364 1271 1253 1154 1219 1310 1435 1376 1411 1403 1312 1258 1272 1208 1185 1150 1297 1311 1377 1372 1382 1348 1294 1289 1172 1195 1159 1123 1024 1062 1122 1136 1102 1109 1170 1232 1278 1212 1096 1117 1091 1015 1042 1054 1034 914 876 854 798 964 1288 1236 1060 1126 1302 1395 1049 950 1186 630 332 209 118 26
817 667 332 43 836 1282 1358 1439 1395 1341 1440 1374 1446 1575 1572 1590 1471 1480 1492 1422 1545 1513 1485 1379 1199 1268 1168 1149 1373 1414 1649 1702 1543 1455 1360 1395 1429 1371 1236 1120 1156 1378 1539 1557 1492 1391 1331 1261 1211 1154 1155 1210 1248 1240 1219 1195 1206 1197 1220 1193 1140 1166 1208 1224 1116 1069 951 842 818 1021 920 883 618 350 774 988 1426 1194 1231 1058 676 534 423 325 94
783 567 205 24 24 1270 1279 1414 1356 1497 1515 1473 1563 1702 1666 1508 1482 1513 1565 1587 1755 1447 1482 1554 1430 1518 1454 1290 1476 1091 1402 1554 1570 1729 1661 1712 1502 1679 1737 1621 1407 1210 1256 1377 1498 1541 1493 1467 1405 1345 1337 1294 1327 1350 1348 1333 1342 1362 1351 1395 1390 1353 1411 1356 1128 1116 1149 1002 799 775 638 621 538 594 919 1059 1263 1427 1501 1150 632 703 555 401 194
394 55 75 50 223 962 1353 1314 1330 1546 1523 1462 1642 1708 1887 2066 1938 2064 1858 1881 1794 1715 1584 1233 1309 1549 1690 1764 1912 1707 1722 1690 1630 1755 1759 1761 1771 1834 1836 1825 1740 1665 1570 1491 1458 1462 1510 1542 1594 1560 1569 1521 1475 1475 1439 1389 1472 1556 1543 1537 1558 1668 1661 1494 1383 1310 1239 1128 1039 956 835 871 712 864 1083 1168 1302 1338 1310 952 758 952 753 465 219
256 116 68 52 76 279 1050 1156 1182 1569 1558 1483 1629 1648 1725 1878 2122 2330 2429 2390 2328 2263 1961 1327 1510 1100 1109 1384 1823 1983 2150 2119 2116 2066 2000 1965 1948 1988 1712 1698 1892 1985 1957 1856 1905 1946 1879 1790 1671 1681 1725 1692 1710 1621 1595 1586 1575 1604 1673 1626 1721 1731 1745 1443 1436 1322 1224 1164 1072 1113 1012 811 770 1129 1209 1276 1386 1410 1141 1188 1044 808 664 608 386
246 292 360 462 519 522 472 1063 1163 1600 1551 1669 1740 1783 1928 2014 2100 2289 2504 2614 2444 1922 2018 2079 1591 1154 1406 1609 1850 2033 2201 2289 2242 2187 2134 2128 2064 1906 1986 1958 1945 1820 1950 1839 2000 2073 2159 2186 2190 2021 1858 1744 1657 1469 1407 1171 1362 1431 1702 1792 1800 1832 1764 1602 1389 1354 1334 1249 1189 1138 1130 1082 1070 1237 1272 1333 1437 1415 1462 1369 1054 917 915 949 587
330 444 547 593 642 664 689 672 991 1428 1004 1530 1588 1760 1908 2073 2178 2340 2494 2553 2542 2313 1969 1938 1607 1054 1652 1740 1477 1595 1571 1580 1580 1858 1789 1755 1947 1883 1809 2082 2265 2074 1861 1879 2068 2223 2242 2319 2290 2218 2291 2154 2126 2066 1868 1685 1666 1714 1560 1391 1309 1532 1714 1597 1299 1273 1243 1200 1200 1178 1132 1033 986 1127 1222 1288 1137 1348 1418 1488 1038 1059 846 1032 558
473 589 672 695 724 717 682 626 574 526 478 525 648 1207 1755 2056 2318 2546 2523 2277 2246 2194 2408 2169 1461 990 1618 1301 1172 1287 1470 1270 1642 1632 1859 1591 1433 1646 1727 1593 1516 1689 1842 2079 2330 2444 2314 2115 2355 2418 2392 2250 1956 1756 1748 1765 1750 1697 1576 1539 1382 1304 1124 1078 1062 1291 1399 1459 1402 1366 1265 1154 1286 1288 1316 1404 1541 1477 1665 1658 1416 1136 764 751 366
615 742 782 779 712 595 504 391 359 332 108 70 75 217 1322 1927 2375 2289 2321 2090 2040 2241 2394 2300 1052 967 1460 1475 1356 1137 1049 925 1237 1448 1803 1252 1272 1504 1616 1411 1324 1350 1442 1546 1539 1634 2189 2354 2308 2028 2109 2208 2130 2087 1929 1980 1977 2158 2113 1807 1666 1435 1428 1188 1015 1094 1430 1355 1322 1341 1237 1090 1147 1142 1179 1342 1403 1475 1750 1827 1308 1207 902 680 581
662 659 622 566 509 415 359 296 94 86 39 31 50 81 453 1707 1346 1249 1637 1438 1496 2351 2437 1876 1144 915 1370 1394 1294 944 329 157 907 1176 1110 1074 1107 1384 1519 1411 1282 1254 1501 1058 1089 1089 1131 1434 2107 2483 2373 2257 2445 2494 2567 2437 2410 2440 2445 2286 1452 1142 1301 1407 1318 1365 1518 1291 1189 1041 986 972 1097 1373 1624 1688 1744 1586 1852 1344 1036 1060 734 710 340
465 430 422 415 512 508 450 86 66 43 12 7 33 36 410 788 141 347 842 879 1012 1292 1477 1648 713 220 939 806 543 239 0 0 35 965 771 798 835 1217 1334 1265 1098 1005 1360 1000 920 1008 1151 1076 937 904 1162 1505 1830 1905 1740 1712 1810 2074 2429 2381 1533 1364 1418 1469 1456 1490 1464 1061 828 804 1018 1273 1383 1456 1614 1472 1531 1738 1372 1220 1081 1129 727 547 454
415 412 467 577 650 608 520 291 38 9 0 1 9 11 4 100 0 0 64 185 538 475 140 541 118 0 262 110 72 175 0 0 200 912 441 460 329 888 988 926 805 711 1158 748 688 653 733 538 498 568 724 647 529 437 764 1021 1275 1530 1783 2061 2304 1853 1729 1710 1706 1649 1491 934 616 545 945 1166 1382 1615 1661 1698 1648 1454 1383 1285 1135 1121 724 650 474
562 457 577 680 654 537 504 508 150 6 0 2 2 6 0 0 0 0 0 15 62 13 0 13 0 0 22 24 82 1 0 0 249 570 449 257 195 448 572 506 447 434 804 284 286 257 344 181 214 306 289 135 0 2 121 352 487 923 1258 1639 1785 1840 1817 1824 1799 1669 1258 845 552 675 1045 1381 1510 1480 1450 1437 1365 1301 1242 1222 1044 787 759 771 678
424 532 596 629 599 517 464 510 453 286 211 132 8 4 0 0 0 0 0 0 0 0 0 0 0 0 19 59 1 43 0 0 146 154 115 1 6 61 208 154 134 120 506 7 20 32 73 9 27 78 0 0 0 0 0 1 79 289 615 833 978 1006 1109 1254 1337 1221 927 723 774 1003 1387 1523 1654 1578 1071 1155 1121 972 1035 1231 936 877 680 756 777
488 520 578 616 685 702 625 550 461 292 266 194 132 71 10 0 1 0 0 0 0 0 0 0 1 1 29 92 8 48 0 0 0 0 0 0 0 0 0 0 0 0 234 0 0 0 0 0 0 0 0 0 0 0 0 0 6 96 283 496 644 728 741 838 934 935 849 637 650 959 1174 1604 1722 1492 1102 985 987 989 951 1159 952 968 714 896 629
542 544 644 736 794 818 795 692 555 307 221 194 12 134 17 0 13 127 0 0 0 0 0 0 2 19 28 196 15 0 0 0 2 6 2 0 0 0 0 0 0 9 84 0 0 0 0 0 0 0 0 0 0 0 0 26 0 28 128 291 477 576 610 694 786 866 810 596 494 845 1065 1328 1482 1495 1138 989 874 896 994 840 798 692 804 794 610
552 638 751 771 780 810 811 787 729 428 375 271 0 0 0 0 33 310 21 0 0 0 0 0 0 0 12 140 11 0 0 0 0 7 13 1 1 0 0 0 0 10 53 8 4 1 0 0 0 0 0 0 1 0 0 0 0 22 95 196 346 522 545 604 711 805 719 582 592 956 1147 1433 1390 1178 1106 897 922 1001 867 858 892 766 839 720 604
603 746 727 684 692 755 739 634 712 588 430 30 11 0 0 0 43 105 3 90 0 0 0 0 0 0 0 0 25 0 0 0 0 0 5 4 8 0 0 0 0 3 41 21 16 11 2 0 0 0 0 0 0 1 2 10 1 5 43 79 195 330 432 521 630 745 702 617 528 753 1118 1334 1093 1001 1018 935 1106 1128 903 934 833 786 804 705 650
660 588 533 509 547 558 482 354 490 400 87 47 29 6 0 0 0 0 0 34 0 0 0 0 0 0 0 0 0 0 0 0 0 0 0 0 0 0 0 0 0 0 6 1 10 6 0 0 0 0 0 0 0 0 41 22 1 6 24 62 135 307 350 420 582 744 711 584 506 710 1122 1208 901 877 1005 946 1060 1009 837 792 913 759 750 623 687
404 351 340 343 412 240 122 127 194 296 36 45 25 28 18 2 0 0 0 0 0 0 0 0 0 0 0 0 0 0 0 0 0 0 0 0 0 0 0 0 0 0 0 0 0 0 0 0 0 0 0 0 0 0 3 3 14 15 19 95 111 261 400 434 476 694 742 553 560 841 1261 1185 898 804 884 870 996 1204 1011 706 730 691 795 684 626
103 39 42 90 159 10 0 0 12 281 12 4 33 0 1 0 0 0 0 0 0 0 0 0 0 0 0 0 0 0 0 0 0 0 0 0 0 0 0 0 0 0 0 0 0 0 0 0 0 0 0 0 0 0 0 1 5 9 46 39 84 187 457 462 434 598 700 604 618 853 1005 1072 924 929 891 859 824 1012 880 577 586 681 676 645 686
8 8 3 2 0 0 0 0 0 0 0 0 8 0 0 0 0 0 0 0 0 0 0 0 0 0 0 0 0 0 0 0 0 0 0 0 0 0 0 0 0 0 0 0 0 0 0 0 0 0 0 0 0 0 0 0 0 0 1 10 43 97 278 340 324 454 666 664 761 972 1113 1058 1039 971 928 991 855 817 748 665 643 741 564 506 554
1 0 0 0 0 0 0 0 0 0 0 0 0 0 0 0 0 0 0 0 0 0 0 0 0 0 0 0 0 0 0 0 0 0 0 0 0 0 0 0 0 0 0 0 0 0 0 0 0 0 0 0 0 0 0 0 0 0 0 0 6 38 143 296 319 339 500 635 785 969 993 883 909 962 954 1001 900 912 595 610 495 660 572 629 456
0 0 0 0 0 0 0 0 0 0 0 0 0 0 0 0 0 0 0 0 0 0 0 0 0 0 0 0 0 0 0 0 0 0 0 0 0 0 0 0 0 0 0 0 0 0 0 0 0 0 0 0 0 0 0 0 0 0 0 0 1 18 40 174 303 291 314 484 785 854 839 791 816 834 822 901 811 745 678 602 661 625 556 504 301
0 0 0 0 0 0 0 0 0 0 0 0 0 0 0 0 0 0 0 0 0 0 0 0 0 0 0 0 0 0 0 0 0 0 0 0 0 0 0 0 0 0 0 0 0 0 0 0 0 0 0 0 0 0 0 0 0 0 0 0 0 2 119 211 251 278 282 390 673 824 814 835 803 756 747 777 893 844 542 654 528 571 572 406 362
0 0 0 0 0 0 0 0 0 0 0 0 0 0 0 0 0 0 0 0 0 0 0 0 0 0 0 0 0 0 0 0 0 0 0 0 0 0 0 0 0 0 0 0 0 0 0 0 0 0 0 0 0 0 0 0 0 0 0 0 0 0 62 160 224 304 316 352 582 694 771 739 556 490 668 864 749 592 450 524 438 564 361 363 376
0 0 0 0 0 0 0 0 0 0 0 0 0 0 0 0 0 0 0 0 0 0 0 0 0 0 0 0 0 0 0 0 0 0 0 0 0 0 0 0 0 0 0 0 0 0 0 0 0 0 0 0 0 0 0 0 0 0 0 0 0 0 0 13 212 364 372 386 508 620 611 660 693 581 623 768 689 475 497 457 404 318 310 315 205
0 0 0 0 0 0 0 0 0 0 0 0 0 0 0 0 0 0 0 0 0 0 0 0 0 0 0 0 0 0 0 0 0 0 0 0 0 0 0 0 0 0 0 0 0 0 0 0 0 0 0 0 0 0 1 4 4 0 0 0 0 0 0 0 69 426 548 438 518 592 536 640 669 658 657 694 615 470 403 404 427 356 292 278 221
0 0 0 0 0 0 0 0 0 0 0 0 0 0 0 0 0 0 0 0 0 0 0 0 0 0 0 0 0 0 0 0 0 0 0 0 0 0 0 0 0 0 0 0 0 0 0 0 0 0 0 0 0 0 2 10 11 7 2 0 0 0 0 1 117 363 492 540 475 533 421 501 470 410 673 591 517 436 441 352 418 246 287 222 149
0 0 0 0 0 0 0 0 0 0 0 0 0 0 0 0 0 0 0 0 0 0 0 0 0 0 0 0 0 0 0 0 0 0 0 1 0 0 0 0 0 0 0 0 0 0 0 0 0 0 0 0 0 0 1 8 4 0 2 1 0 1 6 33 94 141 302 357 342 388 413 334 359 370 406 343 341 450 408 340 346 278 72 194 88
0 0 0 0 0 0 0 0 0 0 0 0 0 0 0 0 0 0 0 0 0 0 0 0 0 0 0 0 0 0 0 0 0 0 0 0 0 0 0 0 0 0 0 0 0 0 0 0 0 0 1 1 0 0 2 7 5 1 0 0 0 14 52 107 124 177 190 228 243 280 375 362 305 65 116 340 367 420 352 244 214 178 82 7 2
0 0 0 0 0 0 0 0 0 0 0 0 0 0 0 0 0 0 0 0 0 0 0 0 0 0 0 0 0 0 0 0 0 0 0 0 0 0 0 0 0 0 0 0 0 0 0 0 0 0 0 2 2 0 3 3 4 11 8 2 0 0 42 173 238 224 269 230 274 255 264 245 232 203 225 454 462 331 307 182 200 56 0 9 0
0 0 0 0 0 0 0 0 0 0 0 0 0 0 0 0 0 0 0 0 0 0 0 0 0 0 0 0 0 0 0 0 0 0 0 0 0 0 0 0 0 0 0 0 0 0 0 0 0 2 2 1 3 3 6 13 12 13 20 34 1 2 7 139 164 16 5 21 209 301 240 203 182 122 168 228 392 73 255 254 9 0 0 0 0
0 0 0 0 0 0 0 0 0 0 0 0 0 0 0 0 0 0 0 0 0 0 0 0 0 0 0 0 0 0 0 0 0 0 0 0 0 0 0 0 0 0 0 0 0 0 0 0 0 3 5 3 3 2 5 9 27 19 10 28 32 48 38 70 36 15 19 104 253 318 391 186 144 12 47 134 272 122 0 0 0 0 3 0 0
0 0 0 0 0 0 0 0 0 0 0 0 0 0 0 0 0 0 0 0 0 0 0 0 0 0 0 0 0 0 0 0 0 0 0 0 0 0 0 0 0 0 0 0 0 0 0 1 2 4 3 3 3 4 2 4 8 27 11 37 59 75 32 18 29 15 202 104 140 250 349 271 189 92 121 152 0 158 6 0 0 0 5 0 0
0 0 0 0 0 0 0 0 0 0 0 0 0 0 0 0 0 0 0 0 0 0 0 0 0 0 0 0 0 0 0 0 0 0 0 0 0 0 0 0 0 0 0 0 0 0 0 1 2 3 3 3 6 3 2 2 5 8 26 6 0 16 20 23 21 58 64 73 150 330 461 194 146 186 120 71 66 0 9 0 3 5 6 0 0
0 0 0 0 0 0 0 0 0 0 0 0 0 0 0 0 0 0 0 0 0 0 0 0 0 0 0 0 0 0 0 0 0 0 0 0 0 0 0 0 0 0 1 0 0 1 2 2 4 3 3 8 5 3 3 2 2 5 15 48 64 89 63 4 40 46 31 198 265 224 332 546 243 238 40 0 33 46 0 0 2 6 9 0 0
0 0 0 0 0 0 0 0 0 0 0 0 0 0 0 0 0 0 0 0 0 0 0 0 0 0 0 0 0 0 0 0 0 0 0 0 0 0 0 0 0 0 7 2 2 2 2 2 2 1 2 5 4 4 7 5 3 4 6 28 28 31 37 51 40 33 57 36 70 162 366 306 374 103 1 1 0 56 11 6 2 3 5 1 0
0 0 0 0 0 0 0 0 0 0 0 0 0 0 0 0 0 0 0 0 0 0 0 0 0 0 0 0 0 0 0 0 0 0 0 0 0 0 0 0 0 0 8 2 0 0 1 0 2 2 2 2 4 7 6 3 5 4 6 4 9 20 22 34 76 90 64 112 127 167 214 214 124 47 18 10 7 4 21 4 3 1 5 0 0
0 0 0 0 0 0 0 0 0 0 0 0 0 0 0 0 0 0 0 0 0 0 0 0 0 0 0 0 0 0 0 0 0 0 0 0 0 0 0 0 1 1 6 0 2 0 1 2 2 2 2 3 6 4 5 5 3 1 2 4 6 11 15 26 72 84 84 170 143 174 104 113 81 31 5 8 10 6 10 2 2 0 0 0 0
0 0 0 0 0 0 0 0 0 0 0 0 0 0 0 0 0 0 0 0 0 0 0 0 0 0 0 0 0 0 0 0 0 0 0 0 0 0 1 1 1 4 2 2 1 0 2 2 1 0 3 6 4 4 3 2 2 1 2 1 4 6 12 16 13 22 70 100 164 200 87 88 49 10 15 10 14 13 0 1 0 2 0 0 0
Wind_Speed
11 12 13 15 20 20 20 19 19 19 18 19 20 19 19 18 19 20 21 21 21 21 21 20 20 20 20 19 20 20 20 19 19 19 19 20 20 21 20 20 20 21 23 23 20 22 25 23 26 26 28 29 32 31 29 29 30 32 33 33 33 32 31 30 28 28 27 26 26 26 27 27 27 nan nan nan nan nan nan nan nan nan 32 nan nan
9 10 10 11 19 20 19 18 17 17 19 16 19 19 18 19 19 20 20 20 20 20 20 20 20 20 20 20 20 21 21 20 20 20 20 21 21 21 21 21 21 22 25 23 22 23 24 25 27 27 28 29 30 30 28 28 31 31 31 32 31 30 29 28 27 27 26 25 24 25 25 26 27 nan nan nan 26 28 27 24 24 31 nan nan nan
5 8 8 9 17 17 18 17 15 15 18 16 18 19 20 20 20 20 20 19 20 20 20 20 20 20 20 20 21 22 22 23 22 21 23 23 24 24 23 24 23 25 27 24 25 25 26 27 27 28 29 29 31 29 27 28 30 31 31 31 30 29 28 27 26 24 23 23 23 23 23 23 25 25 24 24 24 24 24 21 23 32 nan nan nan
8 9 8 10 15 17 17 16 15 16 17 17 19 20 21 21 21 20 21 19 19 20 20 20 20 21 21 21 21 23 24 23 23 23 26 25 25 24 26 26 25 26 26 26 26 25 27 28 28 27 28 29 29 28 27 27 27 29 30 30 29 28 28 27 26 24 23 22 22 24 25 23 23 21 22 22 22 23 23 22 23 29 nan nan nan
9 8 9 10 11 13 18 17 15 18 16 18 19 21 21 22 21 21 22 19 20 20 20 20 21 21 22 22 22 23 25 24 24 24 26 26 25 25 27 27 27 26 27 27 26 26 27 26 27 27 27 27 27 27 27 26 24 26 26 26 26 27 26 26 25 23 23 22 22 25 25 25 24 21 19 19 18 19 21 21 23 nan nan nan nan
7 8 8 9 10 10 17 15 17 16 18 17 21 21 21 22 20 20 20 20 20 20 20 20 21 22 22 23 23 23 25 24 24 26 26 25 24 24 24 26 25 26 27 27 26 26 27 26 26 28 28 26 27 26 26 24 24 23 23 23 23 24 25 24 24 23 21 22 21 23 24 25 25 24 17 18 16 16 18 20 21 22 nan nan nan
8 8 8 9 10 11 15 17 18 17 19 19 21 22 21 22 20 20 20 20 20 20 20 20 21 22 22 22 22 23 24 23 24 26 25 24 24 23 22 24 24 24 25 26 25 26 26 25 26 26 27 27 27 27 26 25 23 22 22 22 22 22 22 22 21 21 21 22 23 24 25 23 23 23 18 16 17 15 15 19 20 21 nan nan nan
9 8 8 9 9 13 18 19 19 19 20 21 22 22 23 22 21 21 21 20 20 20 20 21 21 21 21 21 21 22 21 22 24 24 24 23 23 22 21 22 23 23 23 23 24 25 25 25 25 25 25 25 25 25 26 25 24 24 22 22 21 21 20 20 20 20 19 24 23 24 23 22 21 21 16 13 15 14 15 16 18 20 nan nan nan
9 8 9 9 9 16 20 19 20 20 20 21 22 22 22 21 21 20 20 20 20 20 21 20 20 21 20 20 20 20 20 20 21 23 23 23 21 20 21 20 21 21 21 22 22 23 23 24 23 23 23 23 23 23 23 24 23 23 23 22 22 21 20 19 19 19 22 23 23 24 21 21 20 19 15 10 13 16 14 15 16 18 nan nan nan
8 7 8 8 7 17 18 19 19 20 20 20 21 21 21 20 19 19 19 19 19 19 19 19 18 19 19 18 18 18 19 19 19 20 21 21 20 19 20 20 20 20 20 20 21 21 21 21 21 22 21 20 20 19 20 20 21 21 21 21 21 21 20 19 18 20 23 23 24 23 21 18 19 19 14 10 13 14 16 15 19 19 21 18 nan
7 7 8 8 9 16 17 17 18 19 19 20 20 20 19 18 18 18 17 16 15 16 16 16 17 17 16 16 16 16 17 18 18 19 19 19 19 18 18 19 19 18 19 19 19 19 18 18 19 19 18 17 17 17 17 18 18 18 18 19 18 19 18 18 17 22 22 22 22 22 20 16 18 18 13 9 11 14 15 17 17 19 19 17 nan
7 8 9 nan 10 13 15 16 17 18 19 19 19 18 18 17 16 15 14 13 13 13 14 15 14 14 14 13 13 13 14 15 16 16 16 16 16 16 16 17 17 17 17 16 16 16 16 16 16 16 15 15 14 15 16 17 17 16 16 16 17 16 16 15 17 20 20 20 20 20 19 18 17 15 10 11 11 13 15 17 18 20 19 17 nan
9 10 10 nan nan 11 14 15 16 17 16 16 16 15 15 15 14 13 12 11 11 11 12 13 11 12 12 12 11 12 13 12 13 12 12 12 12 12 13 13 13 13 13 13 13 13 13 13 14 13 13 13 13 14 15 16 16 14 14 14 15 14 13 12 16 17 18 18 19 18 18 17 17 13 11 12 12 12 15 17 15 20 18 17 18
10 nan nan nan 10 12 13 14 15 14 13 12 11 11 11 11 10 10 10 9 9 9 9 11 12 11 9 10 12 12 12 11 10 10 9 9 9 9 9 9 9 10 10 10 11 11 11 11 11 12 12 11 12 12 13 14 14 12 13 13 13 12 11 13 13 16 16 17 17 17 17 18 18 13 12 12 12 11 15 16 17 19 17 16 19
12 11 nan nan nan 11 13 13 13 11 10 8 7 7 7 7 7 7 7 7 7 7 7 8 11 11 11 12 12 12 11 11 11 10 9 8 7 7 8 8 9 9 9 10 10 11 11 11 11 10 10 10 10 11 12 12 11 10 10 11 10 10 9 15 17 18 17 17 16 15 16 17 15 13 12 12 12 13 14 18 15 15 17 16 16
12 11 10 11 11 11 11 10 9 8 7 5 4 4 4 4 4 4 5 5 6 6 5 6 8 10 10 11 12 11 11 11 11 11 10 9 9 9 9 9 10 10 10 9 10 10 10 10 10 10 10 9 9 10 11 10 9 9 9 8 8 9 9 12 18 18 17 18 18 18 16 18 14 14 14 14 15 15 13 19 15 14 17 17 13
11 10 11 10 9 10 9 9 7 5 4 2 1 1 2 2 2 3 4 3 3 5 5 5 7 9 10 11 11 11 10 11 12 12 11 10 10 12 11 11 11 11 11 10 10 10 10 10 9 8 9 8 9 9 10 9 8 8 7 7 7 9 9 10 16 16 17 17 17 18 19 20 18 14 14 15 16 15 14 17 18 14 15 16 14
9 9 9 8 8 7 7 7 6 4 4 2 1 0 0 1 2 2 1 2 3 5 7 7 8 10 11 11 11 11 11 11 12 12 11 11 11 12 12 13 13 13 12 12 11 11 10 10 10 9 8 8 8 7 7 8 8 8 7 7 7 10 11 10 16 18 18 18 18 19 20 20 15 14 13 15 16 15 14 18 21 16 14 15 14
7 8 7 7 5 5 5 5 4 4 3 nan nan 4 1 1 1 1 1 1 4 7 9 10 11 10 10 9 9 10 10 10 10 11 11 11 11 12 12 13 14 14 13 13 13 12 10 10 10 10 9 8 8 8 7 6 7 7 7 6 9 13 10 13 18 19 20 21 22 22 23 18 15 13 12 13 14 15 14 22 21 17 16 15 15
6 6 5 4 3 3 3 3 nan nan nan nan nan nan 3 1 1 2 3 3 3 6 9 11 9 8 8 8 9 12 12 12 9 12 12 12 11 13 13 14 14 14 15 14 13 13 12 11 9 8 9 8 8 8 7 8 7 6 5 5 13 12 11 16 16 17 20 20 20 22 21 16 15 14 13 14 15 16 18 24 20 19 21 16 16
4 3 3 3 2 3 3 nan nan nan nan nan nan nan 4 3 5 4 4 5 6 9 9 10 9 10 11 11 12 13 nan nan nan 14 13 14 12 13 14 14 14 14 14 15 14 15 14 14 12 10 8 6 6 6 6 6 6 5 3 5 9 17 14 15 18 19 20 20 20 20 17 15 15 14 14 15 15 18 21 23 21 21 22 21 17
2 3 4 4 4 2 1 1 nan nan nan nan nan nan nan nan nan nan nan 8 8 11 12 12 11 nan 10 12 nan 13 nan nan 13 13 15 14 13 13 14 14 14 13 14 14 14 13 14 13 12 9 8 9 8 12 12 10 6 6 5 4 12 17 15 15 16 17 17 18 18 17 14 13 13 14 15 15 17 20 22 21 21 24 23 21 18
6 6 5 5 4 3 2 1 1 nan nan nan nan nan nan nan nan nan nan nan nan nan nan nan nan nan nan nan nan nan nan nan 12 13 13 12 12 13 13 13 13 12 13 12 12 11 11 11 10 9 10 10 nan nan 13 14 13 8 8 12 15 15 15 15 15 16 15 16 16 13 12 11 11 12 13 16 18 20 18 17 19 20 19 19 18
7 6 7 6 5 4 4 3 2 2 4 4 nan nan nan nan nan nan nan nan nan nan nan nan nan nan nan nan nan nan nan nan 9 9 10 nan nan nan 11 11 11 11 12 nan nan nan nan nan nan nan nan nan nan nan nan nan nan 14 14 15 15 15 17 17 17 16 16 15 15 10 9 8 9 10 13 17 19 20 18 16 15 18 17 16 17
8 7 6 7 6 5 4 2 3 3 4 4 5 nan nan nan nan nan nan nan nan nan nan nan nan nan nan nan nan nan nan nan nan nan nan nan nan nan nan nan nan nan 11 nan nan nan nan nan nan nan nan nan nan nan nan nan nan nan 15 15 14 14 16 18 19 19 17 16 14 9 7 8 9 10 15 21 18 16 16 15 14 17 17 15 17
8 6 8 7 6 5 3 4 2 2 3 4 nan 7 nan nan nan 9 nan nan nan nan nan nan nan nan nan 10 nan nan nan nan nan nan nan nan nan nan nan nan nan nan nan nan nan nan nan nan nan nan nan nan nan nan nan nan nan nan 15 15 15 15 15 16 18 18 19 19 16 10 8 7 8 10 18 22 16 16 15 14 13 14 13 14 16
7 6 7 7 6 5 4 3 1 3 4 6 nan nan nan nan nan 9 nan nan nan nan nan nan nan nan nan 10 nan nan nan nan nan nan nan nan nan nan nan nan nan nan nan nan nan nan nan nan nan nan nan nan nan nan nan nan nan nan nan 15 16 15 15 15 16 17 18 18 17 12 11 9 10 12 19 19 16 17 18 15 14 13 12 13 15
6 7 7 8 6 6 6 4 4 5 7 nan nan nan nan nan nan 8 nan nan nan nan nan nan nan nan nan nan nan nan nan nan nan nan nan nan nan nan nan nan nan nan nan nan nan nan nan nan nan nan nan nan nan nan nan nan nan nan nan nan 17 16 16 16 16 16 17 17 18 16 14 12 13 15 21 16 14 18 19 15 15 13 11 13 16
7 8 9 7 8 8 6 5 6 5 nan nan nan nan nan nan nan nan nan nan nan nan nan nan nan nan nan nan nan nan nan nan nan nan nan nan nan nan nan nan nan nan nan nan nan nan nan nan nan nan nan nan nan nan nan nan nan nan nan nan 20 18 16 17 16 16 17 17 18 18 15 13 13 16 21 16 12 14 18 17 14 14 12 15 15
10 10 9 9 9 8 6 6 6 4 nan nan nan nan nan nan nan nan nan nan nan nan nan nan nan nan nan nan nan nan nan nan nan nan nan nan nan nan nan nan nan nan nan nan nan nan nan nan nan nan nan nan nan nan nan nan nan nan nan nan 23 23 20 18 18 17 18 18 17 18 15 13 13 13 17 17 12 14 16 18 19 14 14 16 16
10 nan nan nan 9 nan nan nan nan 4 nan nan nan nan nan nan nan nan nan nan nan nan nan nan nan nan nan nan nan nan nan nan nan nan nan nan nan nan nan nan nan nan nan nan nan nan nan nan nan nan nan nan nan nan nan nan nan nan nan nan nan 25 24 21 20 20 20 19 18 18 19 16 13 10 14 17 14 12 15 18 20 21 18 18 23
nan nan nan nan nan nan nan nan nan nan nan nan nan nan nan nan nan nan nan nan nan nan nan nan nan nan nan nan nan nan nan nan nan nan nan nan nan nan nan nan nan nan nan nan nan nan nan nan nan nan nan nan nan nan nan nan nan nan nan nan nan nan 27 24 21 21 21 21 20 20 23 22 15 11 12 15 17 14 16 19 21 22 25 24 27
nan nan nan nan nan nan nan nan nan nan nan nan nan nan nan nan nan nan nan nan nan nan nan nan nan nan nan nan nan nan nan nan nan nan nan nan nan nan nan nan nan nan nan nan nan nan nan nan nan nan nan nan nan nan nan nan nan nan nan nan nan nan 29 28 25 23 22 22 21 21 21 24 22 13 12 14 17 20 22 19 20 25 28 33 32
nan nan nan nan nan nan nan nan nan nan nan nan nan nan nan nan nan nan nan nan nan nan nan nan nan nan nan nan nan nan nan nan nan nan nan nan nan nan nan nan nan nan nan nan nan nan nan nan nan nan nan nan nan nan nan nan nan nan nan nan nan nan nan 30 29 26 24 23 22 22 22 22 23 22 20 18 20 26 29 24 24 30 30 37 38
nan nan nan nan nan nan nan nan nan nan nan nan nan nan nan nan nan nan nan nan nan nan nan nan nan nan nan nan nan nan nan nan nan nan nan nan nan nan nan nan nan nan nan nan nan nan nan nan nan nan nan nan nan nan nan nan nan nan nan nan nan nan 33 33 31 29 27 25 24 23 22 21 22 24 25 26 25 29 28 31 27 34 38 39 40
nan nan nan nan nan nan nan nan nan nan nan nan nan nan nan nan nan nan nan nan nan nan nan nan nan nan nan nan nan nan nan nan nan nan nan nan nan nan nan nan nan nan nan nan nan nan nan nan nan nan nan nan nan nan nan nan nan nan nan nan nan nan nan 35 33 32 30 28 26 24 23 22 23 30 26 30 30 30 33 34 36 35 39 35 38
nan nan nan nan nan nan nan nan nan nan nan nan nan nan nan nan nan nan nan nan nan nan nan nan nan nan nan nan nan nan nan nan nan nan nan nan nan nan nan nan nan nan nan nan nan nan nan nan nan nan nan nan nan nan nan nan nan nan nan nan nan nan nan nan 36 34 33 30 28 26 24 23 25 26 28 30 31 33 29 34 34 37 37 37 35
nan nan nan nan nan nan nan nan nan nan nan nan nan nan nan nan nan nan nan nan nan nan nan nan nan nan nan nan nan nan nan nan nan nan nan nan nan nan nan nan nan nan nan nan nan nan nan nan nan nan nan nan nan nan nan nan nan nan nan nan nan nan nan nan nan 37 35 33 32 28 27 26 25 28 29 31 33 36 32 32 37 36 37 36 34
nan nan nan nan nan nan nan nan nan nan nan nan nan nan nan nan nan nan nan nan nan nan nan nan nan nan nan nan nan nan nan nan nan nan nan nan nan nan nan nan nan nan nan nan nan nan nan nan nan nan nan nan nan nan nan nan nan nan nan nan nan nan nan nan 44 41 39 36 32 30 28 27 28 29 29 31 34 35 34 32 31 33 36 40 33
nan nan nan nan nan nan nan nan nan nan nan nan nan nan nan nan nan nan nan nan nan nan nan nan nan nan nan nan nan nan nan nan nan nan nan nan nan nan nan nan nan nan nan nan nan nan nan nan nan nan nan nan nan nan nan nan nan nan nan nan nan nan nan nan nan 46 42 39 36 34 30 29 31 34 32 37 33 30 30 31 31 34 nan 37 nan
nan nan nan nan nan nan nan nan nan nan nan nan nan nan nan nan nan nan nan nan nan nan nan nan nan nan nan nan nan nan nan nan nan nan nan nan nan nan nan nan nan nan nan nan nan nan nan nan nan nan nan nan nan nan nan nan nan nan nan nan nan nan nan 48 52 52 49 44 41 37 34 34 32 nan 35 32 33 33 32 32 33 36 nan nan nan
nan nan nan nan nan nan nan nan nan nan nan nan nan nan nan nan nan nan nan nan nan nan nan nan nan nan nan nan nan nan nan nan nan nan nan nan nan nan nan nan nan nan nan nan nan nan nan nan nan nan nan nan nan nan nan nan nan nan nan nan nan nan nan 48 53 53 52 45 41 39 36 36 37 36 34 33 36 36 36 33 34 nan nan nan nan
nan nan nan nan nan nan nan nan nan nan nan nan nan nan nan nan nan nan nan nan nan nan nan nan nan nan nan nan nan nan nan nan nan nan nan nan nan nan nan nan nan nan nan nan nan nan nan nan nan nan nan nan nan nan nan nan nan nan nan nan nan nan nan 48 48 nan nan nan 44 42 38 37 36 33 34 34 37 nan 36 36 nan nan nan nan nan
nan nan nan nan nan nan nan nan nan nan nan nan nan nan nan nan nan nan nan nan nan nan nan nan nan nan nan nan nan nan nan nan nan nan nan nan nan nan nan nan nan nan nan nan nan nan nan nan nan nan nan nan nan nan nan nan nan nan nan nan nan nan nan nan nan nan nan 47 47 43 42 38 35 nan nan 31 33 37 nan nan nan nan nan nan nan
nan nan nan nan nan nan nan nan nan nan nan nan nan nan nan nan nan nan nan nan nan nan nan nan nan nan nan nan nan nan nan nan nan nan nan nan nan nan nan nan nan nan nan nan nan nan nan nan nan nan nan nan nan nan nan nan nan nan nan nan nan nan nan nan nan nan 44 48 47 45 44 39 35 nan 38 34 nan 37 nan nan nan nan nan nan nan
nan nan nan nan nan nan nan nan nan nan nan nan nan nan nan nan nan nan nan nan nan nan nan nan nan nan nan nan nan nan nan nan nan nan nan nan nan nan nan nan nan nan nan nan nan nan nan nan nan nan nan nan nan nan nan nan nan nan nan nan nan nan nan nan nan nan nan nan 45 48 45 39 37 39 38 nan nan nan nan nan nan nan nan nan nan
nan nan nan nan nan nan nan nan nan nan nan nan nan nan nan nan nan nan nan nan nan nan nan nan nan nan nan nan nan nan nan nan nan nan nan nan nan nan nan nan nan nan nan nan nan nan nan nan nan nan nan nan nan nan nan nan nan nan nan nan nan nan nan nan nan nan nan 40 44 49 49 44 35 33 nan nan nan nan nan nan nan nan nan nan nan
nan nan nan nan nan nan nan nan nan nan nan nan nan nan nan nan nan nan nan nan nan nan nan nan nan nan nan nan nan nan nan nan nan nan nan nan nan nan nan nan nan nan nan nan nan nan nan nan nan nan nan nan nan nan nan nan nan nan nan nan nan nan nan nan nan nan nan nan nan 47 47 48 44 37 nan nan nan nan nan nan nan nan nan nan nan
nan nan nan nan nan nan nan nan nan nan nan nan nan nan nan nan nan nan nan nan nan nan nan nan nan nan nan nan nan nan nan nan nan nan nan nan nan nan nan nan nan nan nan nan nan nan nan nan nan nan nan nan nan nan nan nan nan nan nan nan nan nan nan nan nan nan nan 28 37 47 52 51 49 nan nan nan nan nan nan nan nan nan nan nan nan
nan nan nan nan nan nan nan nan nan nan nan nan nan nan nan nan nan nan nan nan nan nan nan nan nan nan nan nan nan nan nan nan nan nan nan nan nan nan nan nan nan nan nan nan nan nan nan nan nan nan nan nan nan nan nan nan nan nan nan nan nan nan nan nan nan nan nan 19 29 43 52 53 nan nan nan nan nan nan nan nan nan nan nan nan nan
nan nan nan nan nan nan nan nan nan nan nan nan nan nan nan nan nan nan nan nan nan nan nan nan nan nan nan nan nan nan nan nan nan nan nan nan nan nan nan nan nan nan nan nan nan nan nan nan nan nan nan nan nan nan nan nan nan nan nan nan nan nan nan nan nan nan nan 17 27 38 nan nan nan nan nan nan nan nan nan nan nan nan nan nan nan
Wind_Direction
202 201 203 200 211 220 228 226 231 231 238 248 252 257 257 257 256 257 257 257 258 258 258 258 259 259 260 262 262 263 265 268 270 271 271 274 273 279 278 276 276 277 273 272 269 274 273 273 270 269 269 270 272 272 272 276 275 274 274 274 274 274 273 272 273 272 270 268 267 267 266 264 264 nan nan nan nan nan nan nan nan nan 274 nan nan
172 188 203 203 209 222 229 232 231 241 244 237 257 258 257 258 257 258 257 258 261 262 262 260 260 260 261 262 263 264 264 267 270 273 274 275 274 273 273 272 273 273 277 279 277 275 277 273 271 271 272 272 273 273 277 273 278 277 278 278 276 274 276 274 272 274 275 275 271 270 268 267 266 nan nan nan 275 276 277 280 282 276 nan nan nan
175 198 202 199 215 223 230 234 239 243 249 255 257 260 261 260 261 261 261 261 264 267 267 267 266 265 265 265 263 265 266 268 271 272 272 269 272 275 275 272 274 273 276 279 279 274 274 274 273 273 273 274 275 275 276 271 276 279 280 279 276 276 275 275 275 274 272 269 270 269 264 262 263 265 269 272 275 272 271 274 277 282 nan nan nan
200 198 206 207 212 217 232 235 240 244 251 254 258 261 263 265 264 267 264 267 269 269 269 269 268 267 266 265 266 266 268 270 273 274 274 275 275 274 273 274 276 278 277 277 278 278 275 275 275 274 274 276 276 277 276 271 273 278 279 278 278 276 276 276 274 273 271 269 267 266 266 268 267 264 267 271 275 274 272 272 281 281 nan nan nan
206 203 212 220 223 223 232 235 242 250 246 254 260 261 263 264 268 269 275 275 272 272 271 270 269 268 266 265 266 267 269 270 273 274 275 276 277 276 276 277 277 278 280 282 280 279 277 278 278 279 278 279 280 282 280 277 276 278 278 278 278 276 274 273 272 272 271 269 265 262 264 263 262 262 262 265 272 277 277 275 279 nan nan nan nan
221 220 223 228 235 238 237 247 252 250 255 259 261 262 264 266 266 266 270 271 271 272 272 272 271 270 269 268 268 269 270 271 273 273 272 276 276 277 277 278 279 280 283 285 282 282 284 283 281 280 281 282 282 283 285 287 283 280 278 276 275 275 273 272 271 270 268 265 263 267 266 264 264 263 264 266 265 275 280 280 278 281 nan nan nan
240 235 234 237 243 243 244 248 254 254 263 262 262 264 265 266 269 270 267 267 268 269 270 270 271 270 270 271 271 271 272 275 274 277 276 276 277 278 279 279 280 281 281 282 284 284 284 283 282 283 283 283 284 284 285 284 283 281 278 274 271 269 270 270 270 269 268 268 273 270 267 263 263 263 267 268 272 267 277 285 284 284 nan nan nan
245 246 245 246 247 242 244 245 250 256 258 261 264 266 267 269 269 266 268 268 269 270 270 269 269 269 269 271 272 272 272 275 276 277 280 282 279 280 281 280 280 282 281 282 281 281 280 283 282 281 281 280 281 282 283 283 282 280 278 275 272 269 266 266 267 267 265 271 271 269 266 265 263 263 264 272 279 281 288 289 290 289 nan nan nan
247 251 256 254 259 239 241 243 249 253 256 259 259 261 262 263 265 267 268 271 274 274 274 272 271 272 273 273 274 275 276 278 281 288 287 285 284 283 281 279 278 278 278 277 278 278 278 279 281 279 279 280 281 282 283 283 281 280 277 275 271 269 267 265 265 266 267 270 269 268 268 265 266 267 267 271 277 286 291 294 293 291 nan nan nan
260 261 266 269 265 246 244 247 251 254 256 257 259 260 261 263 264 267 270 273 276 276 276 274 274 274 275 275 277 279 281 283 284 285 290 294 294 288 284 283 279 281 280 280 278 277 278 279 281 280 279 279 279 280 281 282 282 280 279 277 275 272 269 265 263 264 269 269 270 270 269 267 267 270 272 272 274 280 294 299 283 281 279 290 nan
259 264 265 261 255 246 247 250 252 253 256 257 259 260 261 262 265 267 271 276 279 280 279 279 276 274 275 277 278 281 284 286 286 287 286 287 288 288 283 283 283 282 282 281 279 277 278 279 281 284 281 280 280 281 281 281 280 279 278 277 276 274 274 271 267 269 272 272 272 272 269 263 264 267 265 258 266 275 294 298 296 291 289 283 nan
260 263 262 nan 245 241 248 253 253 255 255 256 257 259 261 263 267 272 277 283 287 288 285 282 280 280 277 276 277 282 287 289 289 290 291 292 293 291 288 285 284 284 284 283 281 280 280 281 284 286 287 286 285 286 285 282 280 277 275 273 270 268 266 266 270 275 276 275 274 274 274 270 271 268 256 249 258 280 295 299 294 289 290 285 nan
257 259 262 nan nan 251 252 255 258 257 257 256 257 259 263 268 272 277 285 292 296 293 291 288 287 288 283 285 284 281 284 288 290 292 294 295 293 294 293 291 288 287 288 288 290 289 288 289 291 291 293 293 295 294 291 290 288 285 279 275 270 269 267 263 272 274 275 276 275 273 274 272 268 259 242 239 250 274 292 290 288 284 284 282 274
261 nan nan nan 272 250 245 251 254 257 257 258 260 264 266 268 274 283 292 300 305 307 303 295 300 294 301 303 301 294 294 296 292 289 292 293 296 300 302 297 292 291 293 297 295 297 297 298 300 300 300 300 298 297 297 299 299 294 289 285 281 277 272 267 266 271 273 273 271 270 270 270 267 253 237 233 245 267 284 288 280 286 282 277 277
260 256 nan nan nan 268 245 252 256 257 257 259 261 264 269 274 281 289 303 317 328 324 312 298 297 300 295 296 304 307 307 304 301 298 296 298 301 306 306 307 307 308 308 308 311 312 311 307 304 303 302 301 299 297 301 306 306 301 297 293 289 283 278 277 275 278 275 272 271 267 267 269 268 254 241 236 238 249 277 280 288 294 287 284 282
263 261 264 268 269 274 277 270 264 260 264 269 272 279 289 296 307 322 337 350 353 330 325 312 298 298 298 296 300 306 306 306 303 299 299 303 309 308 313 316 314 314 316 317 319 319 318 315 314 311 307 300 293 290 293 298 304 301 304 300 295 290 278 275 281 280 278 275 272 269 265 265 259 253 250 244 239 241 265 289 290 297 294 289 287
259 267 269 266 269 279 283 293 290 257 274 260 283 311 304 330 347 7 12 3 6 319 344 336 309 300 298 299 297 301 305 306 303 302 301 299 296 295 301 308 316 319 317 316 322 322 322 322 321 320 321 315 304 293 287 292 296 299 293 293 295 291 280 274 279 279 275 272 266 266 268 266 261 255 256 255 251 248 263 292 295 296 294 289 287
260 268 270 276 277 279 290 296 300 305 324 336 350 30 348 36 34 25 2 334 339 329 337 339 318 307 305 304 304 308 306 304 303 302 304 297 293 295 294 291 291 297 304 311 318 323 328 327 330 331 335 337 320 305 293 289 287 290 295 296 278 262 250 249 267 276 273 269 267 268 268 268 265 259 261 262 264 264 277 294 292 294 294 287 288
263 269 283 277 271 286 285 298 296 322 336 nan nan 353 84 78 153 192 274 314 336 333 330 330 323 317 315 317 312 305 304 307 300 306 302 297 296 295 291 286 284 285 288 289 291 298 314 331 340 342 342 339 333 336 333 311 298 297 301 291 271 254 249 257 266 268 273 270 271 273 274 275 273 272 268 269 272 270 286 296 288 290 285 289 300
273 272 265 273 282 267 273 280 nan nan nan nan nan nan 14 181 253 283 306 323 308 319 331 316 311 317 315 311 307 315 313 319 300 317 298 293 290 291 282 280 277 276 277 276 280 284 286 288 306 333 342 341 340 341 342 342 335 325 308 284 268 272 280 279 276 275 273 273 274 274 277 282 283 281 275 272 277 284 292 291 298 305 294 290 286
254 251 254 212 212 232 220 nan nan nan nan nan nan nan 351 289 323 305 296 302 309 301 301 308 315 324 316 313 309 321 nan nan nan 321 298 306 286 274 272 271 272 271 271 273 274 272 273 272 271 271 280 292 304 311 316 317 318 324 313 271 280 303 300 293 291 282 276 276 276 278 286 290 290 287 283 283 290 295 299 301 306 300 290 281 277
156 171 180 184 184 181 181 234 nan nan nan nan nan nan nan nan nan nan nan 322 321 311 324 328 322 nan 314 318 nan 321 nan nan 321 311 316 306 306 272 272 271 271 269 266 265 268 268 269 271 270 269 270 271 267 303 308 306 304 308 308 287 286 296 298 295 289 282 278 275 278 282 293 297 295 291 292 293 294 300 304 317 309 297 297 295 283
164 159 148 152 138 116 131 156 96 nan nan nan nan nan nan nan nan nan nan nan nan nan nan nan nan nan nan nan nan nan nan nan 322 308 309 294 298 282 278 278 275 271 268 269 270 269 266 270 271 271 269 269 nan nan 303 302 301 294 291 298 299 298 298 298 293 286 283 277 276 285 293 299 299 297 295 294 296 297 314 323 305 294 307 306 291
137 137 118 120 137 131 105 61 25 5 329 340 nan nan nan nan nan nan nan nan nan nan nan nan nan nan nan nan nan nan nan nan 319 294 304 nan nan nan 286 285 283 283 267 nan nan nan nan nan nan nan nan nan nan nan nan nan nan 297 298 298 299 302 304 302 297 293 288 285 284 296 298 298 298 297 294 288 285 306 331 334 310 306 321 315 299
110 105 126 128 121 117 100 88 31 343 329 338 337 nan nan nan nan nan nan nan nan nan nan nan nan nan nan nan nan nan nan nan nan nan nan nan nan nan nan nan nan nan 299 nan nan nan nan nan nan nan nan nan nan nan nan nan nan nan 293 293 292 295 300 303 302 300 297 294 294 309 307 298 296 299 292 284 297 314 323 326 324 323 323 321 307
120 140 119 115 117 103 92 62 17 344 350 3 nan 12 nan nan nan 7 nan nan nan nan nan nan nan nan nan 347 nan nan nan nan nan nan nan nan nan nan nan nan nan nan nan nan nan nan nan nan nan nan nan nan nan nan nan nan nan nan 291 291 293 292 292 297 299 301 300 298 296 304 299 300 296 289 290 287 305 310 312 314 317 312 317 314 304
114 114 102 99 103 105 107 78 46 41 38 36 nan nan nan nan nan 8 nan nan nan nan nan nan nan nan nan 350 nan nan nan nan nan nan nan nan nan nan nan nan nan nan nan nan nan nan nan nan nan nan nan nan nan nan nan nan nan nan nan 293 292 295 292 295 295 296 295 295 296 301 292 289 287 276 280 295 312 311 307 312 307 299 308 304 299
112 106 99 87 93 103 88 85 69 56 54 nan nan nan nan nan nan 6 nan nan nan nan nan nan nan nan nan nan nan nan nan nan nan nan nan nan nan nan nan nan nan nan nan nan nan nan nan nan nan nan nan nan nan nan nan nan nan nan nan nan 292 293 293 293 294 294 291 291 291 295 294 293 281 278 287 293 316 316 311 311 310 314 311 301 291
111 102 88 94 94 88 96 101 82 73 nan nan nan nan nan nan nan nan nan nan nan nan nan nan nan nan nan nan nan nan nan nan nan nan nan nan nan nan nan nan nan nan nan nan nan nan nan nan nan nan nan nan nan nan nan nan nan nan nan nan 288 289 288 290 294 293 290 288 286 287 295 296 290 282 290 303 319 315 312 312 308 304 301 290 292
95 90 100 94 93 93 107 104 88 69 nan nan nan nan nan nan nan nan nan nan nan nan nan nan nan nan nan nan nan nan nan nan nan nan nan nan nan nan nan nan nan nan nan nan nan nan nan nan nan nan nan nan nan nan nan nan nan nan nan nan 285 286 284 289 293 292 289 286 286 284 292 296 281 282 290 302 311 312 309 305 298 288 276 286 289
99 nan nan nan 93 nan nan nan nan 69 nan nan nan nan nan nan nan nan nan nan nan nan nan nan nan nan nan nan nan nan nan nan nan nan nan nan nan nan nan nan nan nan nan nan nan nan nan nan nan nan nan nan nan nan nan nan nan nan nan nan nan 281 280 281 287 287 286 286 285 282 283 291 286 291 296 300 299 299 297 285 283 284 289 278 277
nan nan nan nan nan nan nan nan nan nan nan nan nan nan nan nan nan nan nan nan nan nan nan nan nan nan nan nan nan nan nan nan nan nan nan nan nan nan nan nan nan nan nan nan nan nan nan nan nan nan nan nan nan nan nan nan nan nan nan nan nan nan 277 276 279 283 282 282 283 283 279 282 295 301 300 303 299 290 274 268 277 285 284 283 286
nan nan nan nan nan nan nan nan nan nan nan nan nan nan nan nan nan nan nan nan nan nan nan nan nan nan nan nan nan nan nan nan nan nan nan nan nan nan nan nan nan nan nan nan nan nan nan nan nan nan nan nan nan nan nan nan nan nan nan nan nan nan 274 274 274 278 279 279 280 280 278 278 272 275 293 290 290 283 282 281 280 274 279 281 282
nan nan nan nan nan nan nan nan nan nan nan nan nan nan nan nan nan nan nan nan nan nan nan nan nan nan nan nan nan nan nan nan nan nan nan nan nan nan nan nan nan nan nan nan nan nan nan nan nan nan nan nan nan nan nan nan nan nan nan nan nan nan nan 270 271 272 275 275 276 274 274 275 281 281 277 282 280 285 285 291 284 284 285 284 287
nan nan nan nan nan nan nan nan nan nan nan nan nan nan nan nan nan nan nan nan nan nan nan nan nan nan nan nan nan nan nan nan nan nan nan nan nan nan nan nan nan nan nan nan nan nan nan nan nan nan nan nan nan nan nan nan nan nan nan nan nan nan 266 266 265 266 269 271 272 274 272 272 272 275 266 265 277 281 283 284 279 286 281 281 282
nan nan nan nan nan nan nan nan nan nan nan nan nan nan nan nan nan nan nan nan nan nan nan nan nan nan nan nan nan nan nan nan nan nan nan nan nan nan nan nan nan nan nan nan nan nan nan nan nan nan nan nan nan nan nan nan nan nan nan nan nan nan nan 262 260 261 265 266 268 270 270 270 266 258 266 267 265 274 280 280 283 276 274 278 281
nan nan nan nan nan nan nan nan nan nan nan nan nan nan nan nan nan nan nan nan nan nan nan nan nan nan nan nan nan nan nan nan nan nan nan nan nan nan nan nan nan nan nan nan nan nan nan nan nan nan nan nan nan nan nan nan nan nan nan nan nan nan nan nan 260 262 261 263 262 263 266 267 271 275 268 270 270 263 271 281 280 281 279 278 279
nan nan nan nan nan nan nan nan nan nan nan nan nan nan nan nan nan nan nan nan nan nan nan nan nan nan nan nan nan nan nan nan nan nan nan nan nan nan nan nan nan nan nan nan nan nan nan nan nan nan nan nan nan nan nan nan nan nan nan nan nan nan nan nan nan 258 261 261 259 258 258 258 263 265 265 266 266 265 262 266 276 273 277 278 279
nan nan nan nan nan nan nan nan nan nan nan nan nan nan nan nan nan nan nan nan nan nan nan nan nan nan nan nan nan nan nan nan nan nan nan nan nan nan nan nan nan nan nan nan nan nan nan nan nan nan nan nan nan nan nan nan nan nan nan nan nan nan nan nan 262 261 259 257 255 254 252 253 253 253 254 259 258 260 262 260 258 264 268 275 277
nan nan nan nan nan nan nan nan nan nan nan nan nan nan nan nan nan nan nan nan nan nan nan nan nan nan nan nan nan nan nan nan nan nan nan nan nan nan nan nan nan nan nan nan nan nan nan nan nan nan nan nan nan nan nan nan nan nan nan nan nan nan nan nan nan 257 255 252 251 250 249 250 250 257 258 250 259 264 263 261 259 262 nan 275 nan
nan nan nan nan nan nan nan nan nan nan nan nan nan nan nan nan nan nan nan nan nan nan nan nan nan nan nan nan nan nan nan nan nan nan nan nan nan nan nan nan nan nan nan nan nan nan nan nan nan nan nan nan nan nan nan nan nan nan nan nan nan nan nan 256 253 252 248 246 247 247 245 245 248 nan 254 258 257 257 260 260 260 259 nan nan nan
nan nan nan nan nan nan nan nan nan nan nan nan nan nan nan nan nan nan nan nan nan nan nan nan nan nan nan nan nan nan nan nan nan nan nan nan nan nan nan nan nan nan nan nan nan nan nan nan nan nan nan nan nan nan nan nan nan nan nan nan nan nan nan 255 252 246 244 241 241 241 242 242 243 246 249 252 252 250 254 251 249 nan nan nan nan
nan nan nan nan nan nan nan nan nan nan nan nan nan nan nan nan nan nan nan nan nan nan nan nan nan nan nan nan nan nan nan nan nan nan nan nan nan nan nan nan nan nan nan nan nan nan nan nan nan nan nan nan nan nan nan nan nan nan nan nan nan nan nan 254 249 nan nan nan 234 233 234 238 242 245 249 248 249 nan 247 248 nan nan nan nan nan
nan nan nan nan nan nan nan nan nan nan nan nan nan nan nan nan nan nan nan nan nan nan nan nan nan nan nan nan nan nan nan nan nan nan nan nan nan nan nan nan nan nan nan nan nan nan nan nan nan nan nan nan nan nan nan nan nan nan nan nan nan nan nan nan nan nan nan 227 228 226 227 230 232 nan nan 235 250 250 nan nan nan nan nan nan nan
nan nan nan nan nan nan nan nan nan nan nan nan nan nan nan nan nan nan nan nan nan nan nan nan nan nan nan nan nan nan nan nan nan nan nan nan nan nan nan nan nan nan nan nan nan nan nan nan nan nan nan nan nan nan nan nan nan nan nan nan nan nan nan nan nan nan 233 220 218 219 218 220 225 nan 233 227 nan 248 nan nan nan nan nan nan nan
nan nan nan nan nan nan nan nan nan nan nan nan nan nan nan nan nan nan nan nan nan nan nan nan nan nan nan nan nan nan nan nan nan nan nan nan nan nan nan nan nan nan nan nan nan nan nan nan nan nan nan nan nan nan nan nan nan nan nan nan nan nan nan nan nan nan nan nan 212 214 212 210 220 227 231 nan nan nan nan nan nan nan nan nan nan
nan nan nan nan nan nan nan nan nan nan nan nan nan nan nan nan nan nan nan nan nan nan nan nan nan nan nan nan nan nan nan nan nan nan nan nan nan nan nan nan nan nan nan nan nan nan nan nan nan nan nan nan nan nan nan nan nan nan nan nan nan nan nan nan nan nan nan 220 212 206 204 203 207 223 nan nan nan nan nan nan nan nan nan nan nan
nan nan nan nan nan nan nan nan nan nan nan nan nan nan nan nan nan nan nan nan nan nan nan nan nan nan nan nan nan nan nan nan nan nan nan nan nan nan nan nan nan nan nan nan nan nan nan nan nan nan nan nan nan nan nan nan nan nan nan nan nan nan nan nan nan nan nan nan nan 201 201 198 197 212 nan nan nan nan nan nan nan nan nan nan nan
nan nan nan nan nan nan nan nan nan nan nan nan nan nan nan nan nan nan nan nan nan nan nan nan nan nan nan nan nan nan nan nan nan nan nan nan nan nan nan nan nan nan nan nan nan nan nan nan nan nan nan nan nan nan nan nan nan nan nan nan nan nan nan nan nan nan nan 211 199 194 193 198 200 nan nan nan nan nan nan nan nan nan nan nan nan
nan nan nan nan nan nan nan nan nan nan nan nan nan nan nan nan nan nan nan nan nan nan nan nan nan nan nan nan nan nan nan nan nan nan nan nan nan nan nan nan nan nan nan nan nan nan nan nan nan nan nan nan nan nan nan nan nan nan nan nan nan nan nan nan nan nan nan 205 200 191 188 186 nan nan nan nan nan nan nan nan nan nan nan nan nan
nan nan nan nan nan nan nan nan nan nan nan nan nan nan nan nan nan nan nan nan nan nan nan nan nan nan nan nan nan nan nan nan nan nan nan nan nan nan nan nan nan nan nan nan nan nan nan nan nan nan nan nan nan nan nan nan nan nan nan nan nan nan nan nan nan nan nan 185 194 189 nan nan nan nan nan nan nan nan nan nan nan nan nan nan nan